Vertical_Velocity
-3 -5 -2 -1 -1 -0 1 -1 -5 -6 -5 -5 -5 -5 -4 -3 -1 -1 0 6 8 5 -0 -3 -3 -3 -2 -2 -5 -3 0 0 -2 0 -1 2 -2 -4 -3 -7 12 99 18 -5
-1 -1 -1 -2 -3 -4 -5 -6 -5 -4 -2 -1 -3 -1 4 1 -2 -1 -4 -2 -0 -0 -2 0 3 -0 -6 -5 -3 -2 -4 -3 -2 -1 -1 3 1 -4 -7 -15 3 11 -5 13
-2 -3 -3 -2 -1 0 1 0 0 0 -0 0 -1 -5 -7 -0 -3 -3 1 0 -2 -2 1 -0 -1 -3 -1 -1 -2 -4 -4 -3 -3 1 -2 2 -0 -2 -7 -5 -6 -1 -4 15
-1 -2 -2 -1 -1 -2 -1 0 -1 -2 -1 -3 0 -10 1 -5 -6 -1 -6 -4 -4 -3 -6 -3 -5 -1 2 -1 -1 -6 -4 -2 -3 -5 -1 -1 -1 -0 2 -9 -8 -10 -5 10
1 -0 -0 -0 1 1 -0 -2 -2 -1 -2 -2 4 2 -29 3 -2 1 1 -2 -2 -2 1 -2 -1 -2 -9 -6 -5 -2 -6 -5 -3 -2 -5 -2 1 1 -6 -4 -6 -12 -12 -3
-2 -3 -2 -2 -2 -2 -2 -1 -2 -1 -1 -0 4 5 -26 -2 -1 -5 -1 -2 -2 -5 -4 -3 -6 -4 -3 -5 -8 -7 -4 -3 -3 -4 -3 -5 -1 1 3 -6 -5 -3 -11 -6
-2 -2 -2 -3 -2 -2 -2 -2 -5 -4 -3 1 3 2 -10 -2 -4 -2 -4 -5 -2 -5 -4 -4 -4 -6 -2 -3 -3 -5 -6 -6 -2 -1 -3 -1 -4 -4 -1 4 -4 -0 -3 -1
-1 -3 -2 -1 -1 -1 -1 -0 -0 -3 -3 -1 6 -3 -9 -1 -2 -1 -2 -3 -2 -4 -5 -4 -6 -5 -3 -6 -5 -2 -4 -3 -1 -0 1 -1 -1 -1 -2 -0 -0 -3 0 -3
-2 -0 -1 -1 -1 1 1 -1 -2 -3 2 1 1 -12 -7 2 -3 1 -2 -2 -3 -4 -5 -5 -5 -2 -4 -6 -5 -2 -1 -1 -1 -2 0 1 0 -0 -0 1 2 -1 0 -0
-2 -1 0 0 -1 -2 -2 -2 -2 -0 -6 -4 3 -2 -7 -4 -0 -1 -2 -2 -2 -4 -4 -6 -7 -3 -4 -8 -8 -5 -2 -2 0 -1 -4 -4 -1 -1 -2 -0 1 0 -1 -1
-0 -0 0 0 1 -0 -3 1 -2 -0 2 -3 -4 -1 3 1 -1 -3 -3 -1 -0 -3 -3 -4 -5 -4 -4 -6 -7 -4 -2 -3 -3 -1 -3 -3 -5 -1 -0 -2 -3 -1 0 -1
-1 -1 -0 -0 -1 -1 -0 -2 -0 -1 2 -0 -5 6 1 -0 -2 1 -1 -1 -1 -2 -2 -3 -4 -4 -5 -4 -4 -4 -3 -2 -3 -5 -4 -2 -3 -4 -3 -1 -2 -1 -2 -1
0 0 0 2 -1 -2 -2 -0 -0 -1 -4 1 -2 -11 -4 -2 -0 -4 -1 -3 -0 0 -4 -3 -3 -4 -5 -5 -5 -3 -1 -1 -1 -1 -2 -3 -3 -3 -1 -3 -1 -2 -0 -1
-1 0 1 -1 -4 -3 -2 0 0 -1 -2 1 -3 13 -16 -10 -5 -2 -1 -0 -2 -2 -2 -3 -3 -2 -2 -2 -3 -5 -5 -4 -1 -2 -3 -1 -4 -4 -3 -2 -2 -2 -1 -0
-1 0 -1 -1 -1 -3 -8 4 0 -4 -6 -1 -4 -2 -4 -1 -5 -6 -4 -5 -5 -4 -5 -5 -4 -3 -3 -3 -2 -3 -5 -4 -2 -0 -0 -1 -0 -1 -2 -5 -5 -4 -3 -1
-1 -1 -0 -4 -0 -3 3 -7 -6 1 -2 4 1 3 -2 0 -2 -3 -4 -5 -3 -2 -2 -2 -5 -5 -4 -4 -5 -4 -4 -3 -4 -2 -2 -1 -1 -1 -1 -0 -0 -1 -2 -3
-1 -1 -0 1 -1 -3 2 -3 -4 -4 -3 -3 -3 -6 -3 -2 -4 -2 -2 -2 -0 -0 -1 -1 -2 -4 -4 -3 -4 -3 -4 -4 -3 -4 -4 -3 -3 -3 -4 -3 -3 -2 -0 -0
-0 0 -2 1 -1 1 3 -2 1 -1 -4 -3 -2 -2 -3 -1 -1 -6 -7 -4 -1 -3 -4 -2 -3 -3 -5 -3 -3 -3 -2 -3 -4 -3 -3 -3 -2 -3 -4 -4 -3 -4 -2 -1
-2 -2 -3 -2 -3 1 -3 -5 1 5 -1 -3 -1 -4 -3 -4 -0 4 -4 -4 -1 -2 -2 -2 -2 -0 -1 -3 -3 -3 -3 -3 -3 -3 -3 -3 -3 -3 -3 -4 -4 -3 -3 -3
-4 -2 -2 1 -5 -1 1 4 -1 -3 -3 4 -4 -4 -1 -1 -4 -2 -4 -6 -5 -8 -6 -6 -5 -3 0 -3 -3 -2 -3 -2 -2 -3 -2 -3 -3 -3 -4 -4 -4 -5 -4 -3
-2 -2 -0 -3 -5 13 -7 -8 1 -4 -1 -6 3 -1 -2 -0 -4 -2 -2 0 -1 -2 -2 -1 -2 -2 -3 -2 -2 -0 -3 -3 -1 -2 -1 -1 -3 -1 -3 -2 -4 -4 -5 -3
-1 -6 4 -2 -5 -1 6 -4 2 -6 1 -6 -2 -1 -1 -0 4 3 0 -2 -2 -3 -1 3 -3 -2 -11 6 -2 -1 -0 -2 1 -1 -1 -1 -1 -2 -2 -2 -2 -3 -5 -3
-8 1 -0 2 -4 3 -3 1 -6 -4 3 5 -1 -3 -3 -3 -4 -1 -1 2 -0 -5 -4 -2 -0 1 2 -1 -6 7 -1 -1 -2 -2 0 -0 -1 -2 -1 -1 -1 -0 -3 -5
1 -3 3 -2 3 -2 -4 -5 -8 -3 0 -3 -4 -2 1 -3 -1 3 1 3 0 1 -0 -1 0 -0 2 2 -5 6 0 0 -2 -2 -3 0 -0 -0 -2 -2 -0 -0 -2 -1
-10 1 -4 4 -2 7 -2 -1 -4 -2 -2 -3 -4 -4 -5 -6 1 -6 -1 -0 1 -0 2 2 -0 3 1 1 -3 2 1 1 0 -0 -2 -3 -1 -1 1 -1 -1 1 -2 -4
-3 -3 -2 1 -3 3 1 4 -4 -1 -2 1 -2 4 2 -7 -5 -5 -3 -6 -7 -3 1 1 2 0 1 1 1 0 0 2 1 1 -0 -3 -2 -1 -1 -1 2 -1 0 -1
Height
5843 5844 5845 5845 5845 5845 5845 5845 5846 5845 5844 5843 5842 5841 5839 5838 5836 5834 5834 5833 5832 5830 5828 5827 5826 5825 5824 5822 5822 5823 5823 5824 5825 5828 5829 5832 5835 5837 5839 5842 5838 5816 5825 5839
5843 5843 5844 5844 5844 5843 5843 5843 5842 5842 5841 5840 5837 5835 5834 5832 5831 5828 5826 5824 5822 5820 5819 5817 5815 5813 5812 5810 5809 5808 5809 5810 5812 5813 5814 5817 5820 5824 5826 5829 5830 5827 5819 5834
5841 5841 5840 5840 5840 5840 5841 5840 5839 5839 5837 5835 5832 5828 5828 5826 5823 5821 5818 5815 5812 5810 5808 5806 5804 5801 5799 5797 5796 5795 5793 5793 5796 5798 5799 5801 5804 5808 5813 5817 5818 5819 5825 5823
5839 5839 5838 5838 5838 5838 5837 5835 5834 5832 5831 5829 5828 5824 5819 5820 5816 5814 5810 5807 5804 5801 5797 5793 5788 5785 5784 5782 5781 5779 5778 5777 5777 5779 5782 5784 5787 5790 5795 5800 5804 5807 5813 5809
5836 5835 5834 5833 5833 5831 5830 5829 5827 5826 5825 5823 5822 5821 5805 5812 5806 5803 5801 5796 5792 5788 5784 5780 5777 5773 5769 5767 5765 5763 5761 5760 5760 5760 5762 5766 5769 5772 5776 5781 5787 5794 5798 5801
5832 5831 5830 5828 5827 5825 5824 5823 5821 5819 5818 5816 5815 5813 5802 5803 5799 5795 5790 5787 5783 5779 5774 5769 5764 5759 5755 5752 5750 5748 5746 5743 5740 5740 5742 5744 5749 5752 5757 5762 5767 5774 5782 5786
5828 5827 5826 5825 5823 5821 5819 5817 5815 5814 5812 5810 5806 5803 5796 5794 5790 5786 5782 5778 5773 5770 5766 5760 5755 5749 5744 5739 5734 5729 5728 5727 5725 5722 5721 5724 5728 5732 5736 5742 5748 5754 5761 5768
5824 5823 5821 5819 5818 5816 5813 5812 5810 5807 5804 5801 5794 5794 5789 5786 5782 5778 5774 5771 5766 5762 5756 5750 5746 5740 5734 5729 5722 5714 5709 5707 5708 5707 5705 5705 5707 5712 5715 5720 5726 5733 5740 5746
5818 5818 5816 5814 5812 5811 5808 5806 5803 5800 5797 5793 5788 5784 5779 5778 5772 5768 5764 5760 5756 5752 5748 5743 5738 5732 5725 5718 5709 5701 5697 5697 5697 5697 5696 5694 5693 5694 5698 5702 5705 5710 5719 5726
5813 5811 5810 5808 5807 5805 5802 5799 5795 5792 5788 5784 5781 5775 5770 5768 5763 5759 5756 5753 5749 5744 5740 5735 5730 5724 5716 5707 5698 5692 5690 5690 5690 5689 5688 5687 5685 5684 5684 5686 5689 5693 5697 5704
5806 5805 5804 5801 5800 5797 5795 5791 5788 5785 5781 5776 5773 5770 5764 5760 5756 5752 5748 5744 5741 5736 5732 5728 5723 5716 5708 5700 5692 5687 5686 5684 5682 5682 5681 5680 5678 5677 5676 5675 5676 5679 5682 5685
5800 5798 5796 5795 5793 5790 5787 5783 5780 5776 5774 5770 5767 5765 5759 5755 5750 5745 5741 5738 5734 5729 5724 5720 5714 5708 5702 5695 5687 5681 5679 5677 5675 5673 5672 5671 5671 5670 5669 5667 5667 5668 5669 5671
5794 5791 5788 5787 5787 5783 5779 5775 5771 5769 5766 5764 5761 5755 5750 5747 5743 5739 5735 5731 5726 5722 5717 5713 5707 5701 5695 5690 5683 5677 5673 5669 5666 5664 5663 5661 5660 5660 5660 5659 5658 5658 5658 5658
5787 5784 5782 5780 5778 5776 5772 5768 5765 5763 5760 5758 5753 5751 5743 5740 5735 5731 5728 5724 5720 5715 5711 5706 5701 5695 5690 5685 5679 5674 5669 5664 5659 5655 5653 5652 5650 5650 5649 5649 5649 5649 5648 5648
5780 5778 5775 5773 5771 5768 5764 5762 5759 5756 5752 5751 5747 5743 5737 5735 5729 5724 5721 5717 5713 5708 5704 5699 5694 5689 5684 5678 5673 5668 5663 5658 5653 5649 5645 5642 5640 5638 5638 5637 5637 5636 5637 5636
5772 5771 5768 5766 5763 5761 5758 5754 5751 5749 5746 5743 5740 5738 5731 5728 5723 5718 5715 5711 5707 5702 5697 5692 5687 5681 5676 5671 5666 5660 5655 5650 5646 5642 5637 5633 5630 5627 5626 5626 5625 5624 5623 5623
5765 5763 5760 5759 5757 5754 5752 5749 5745 5742 5739 5736 5733 5728 5725 5720 5716 5711 5706 5702 5700 5695 5689 5684 5679 5673 5668 5663 5658 5652 5647 5642 5637 5633 5629 5625 5620 5616 5613 5612 5612 5612 5611 5609
5756 5756 5752 5750 5749 5747 5746 5742 5738 5736 5732 5729 5725 5721 5717 5712 5709 5704 5698 5693 5689 5686 5680 5676 5670 5665 5658 5653 5648 5643 5638 5634 5630 5625 5620 5616 5612 5608 5604 5600 5598 5597 5597 5597
5748 5746 5744 5742 5741 5740 5737 5734 5731 5728 5727 5721 5718 5713 5709 5705 5700 5697 5691 5685 5680 5676 5671 5666 5660 5655 5650 5644 5639 5634 5629 5624 5620 5615 5611 5607 5603 5599 5596 5592 5589 5586 5584 5583
5740 5738 5737 5735 5733 5731 5728 5727 5723 5720 5717 5716 5711 5706 5701 5697 5693 5688 5681 5675 5670 5664 5658 5653 5649 5645 5641 5635 5629 5624 5619 5614 5610 5605 5601 5597 5593 5590 5586 5582 5579 5576 5573 5571
5732 5730 5728 5727 5725 5725 5721 5718 5716 5712 5712 5705 5701 5698 5693 5689 5685 5680 5674 5668 5661 5656 5650 5643 5638 5633 5629 5624 5619 5614 5608 5603 5599 5595 5591 5587 5583 5579 5575 5572 5568 5565 5562 5560
5725 5723 5722 5720 5718 5715 5715 5711 5710 5704 5701 5697 5693 5689 5684 5679 5675 5669 5664 5658 5653 5646 5640 5634 5628 5622 5615 5612 5606 5602 5596 5591 5587 5584 5580 5576 5573 5569 5566 5562 5559 5555 5552 5549
5716 5717 5714 5713 5711 5706 5705 5702 5698 5694 5692 5688 5684 5680 5675 5671 5665 5659 5653 5646 5640 5634 5627 5621 5615 5609 5603 5597 5592 5589 5583 5579 5575 5571 5568 5565 5562 5559 5556 5553 5549 5546 5543 5540
5708 5707 5705 5702 5703 5698 5697 5692 5689 5686 5683 5679 5674 5670 5665 5660 5653 5647 5641 5635 5628 5620 5613 5607 5601 5595 5590 5584 5577 5576 5570 5566 5563 5560 5557 5553 5551 5548 5545 5542 5539 5536 5532 5530
5698 5699 5696 5694 5692 5691 5687 5684 5680 5676 5672 5668 5663 5658 5652 5645 5640 5633 5627 5620 5613 5606 5599 5592 5585 5580 5575 5569 5563 5561 5557 5553 5550 5548 5545 5542 5539 5537 5535 5531 5529 5525 5520 5515
5692 5689 5687 5684 5681 5680 5676 5673 5669 5665 5660 5656 5651 5645 5637 5630 5624 5618 5611 5604 5598 5591 5584 5576 5570 5563 5559 5554 5551 5547 5543 5541 5538 5536 5533 5531 5528 5525 5522 5520 5518 5514 5510 5506